#timestamp,LO_Frequency,Hit,StdDev 
1598742015.2,286047001.8,N
1598742035.0,286047002.8,N
1598742035.9,286047002.8,Y
1598742055.8,286047000.5,P
1598742075.6,286047000.2,N
1598742095.5,286047000.5,N
1598742115.3,286047001.2,N
1598742135.1,286047001.1,N
1598742155.9,286046998.1,Y
1598742175.7,286046998.4,P
1598742195.5,286046998.6,N
1598742215.4,286047000.6,N
1598742235.2,286047001.1,N
1598742255.1,286047000.3,N
1598742256.0,286047000.3,N
1598742275.8,286047002.4,N
1598742295.6,286047003.7,N
1598742315.5,286047003.7,N
1598742335.3,286047003.1,N
1598742355.1,286047002.1,N
1598742375.9,286047001.6,N
1598742395.7,286047002.7,N
1598742415.6,286047000.8,N
1598742435.4,286047001.0,N
1598742455.2,286047000.5,N
1598742475.1,286047000.8,N
1598742476.0,286047000.8,N
1598742495.8,286047001.0,N
1598742515.7,286047002.5,N
1598742535.5,286047003.9,N
1598742555.3,286047002.9,N
1598742575.2,286047004.0,N
1598742595.0,286047001.7,N
1598742595.9,286047001.7,N
1598742615.7,286047002.0,N
1598742635.6,286047001.6,N
1598742655.4,286047002.3,N
1598742675.3,286047004.2,Y
1598742695.1,286047001.3,P
1598742696.0,286047001.3,P
1598742715.8,286047002.7,P
1598742735.7,286046999.7,N
1598742755.5,286047001.1,N
1598742775.3,286047001.2,N
1598742795.2,286047000.4,N
1598742815.0,286046999.7,N
1598742815.9,286046999.7,N
1598742835.8,286047002.7,N
1598742855.6,286046999.7,N
1598742875.4,286047002.8,N
1598742895.3,286047001.7,N
1598742915.1,286047005.8,Y
1598742935.9,286047001.3,P
1598742955.7,286046999.7,P
1598742975.5,286047002.7,P
1598742995.4,286047001.7,N
1598743015.2,286047001.7,N
1598743035.1,286047001.9,N
1598743036.0,286047001.9,N
1598743055.8,286047002.6,Y
1598743075.6,286047000.5,P
1598743095.5,286046998.5,P
1598743115.3,286046998.4,N
1598743135.2,286047000.4,N
1598743155.9,286047001.9,N
1598743175.7,286046999.9,N
1598743195.6,286046999.8,N
1598743215.4,286047000.6,N
1598743235.2,286047001.1,N
1598743255.1,286046999.9,N
1598743256.0,286046999.9,N
1598743275.8,286047002.5,N
1598743295.7,286047001.6,N
1598743315.5,286047000.4,N
1598743335.3,286046999.7,N
1598743355.2,286046999.9,N
1598743375.0,286047000.6,N
1598743375.9,286047000.6,N
1598743395.8,286046998.3,N
1598743415.6,286046998.4,N
1598743435.4,286046998.6,N
1598743455.3,286047000.8,N
1598743475.1,286047002.8,N
1598743495.8,286047002.8,N
1598743515.7,286047001.9,N
1598743535.5,286047004.0,Y
1598743555.4,286047005.2,P
1598743575.2,286047005.0,N
1598743595.0,286047005.7,N
1598743595.9,286047005.7,N
1598743615.8,286047005.0,N
1598743635.6,286047004.5,N
1598743655.5,286047005.3,Y
1598743675.3,286047000.1,P
1598743695.1,286047000.6,N
1598743715.9,286047001.2,N
1598743735.7,286047000.6,N
1598743755.5,286046998.2,N
1598743775.4,286046998.3,N
1598743795.2,286046996.7,N
1598743815.1,286046996.8,N
1598743816.0,286046996.8,N
1598743835.8,286046997.1,N
1598743855.6,286046996.9,N
1598743875.5,286046997.2,N
1598743895.3,286046997.1,N
1598743915.1,286046996.9,N
1598743935.9,286046997.1,N
1598743955.7,286046999.6,N
1598743975.6,286046999.4,N
1598743995.4,286046997.0,N
1598744015.2,286046996.5,N
1598744035.1,286046997.0,N
1598744036.0,286046997.0,N
1598744055.8,286046996.6,N
1598744075.7,286046997.1,N
1598744095.5,286046998.7,N
1598744115.3,286046999.5,N
1598744135.2,286046997.4,N
1598744155.0,286046996.6,N
1598744155.9,286046996.6,N
1598744175.8,286046999.6,N
1598744195.6,286046999.1,N
1598744215.4,286046997.8,N
1598744235.3,286046996.6,N
1598744255.1,286046997.3,N
1598744275.8,286046997.0,N
1598744295.7,286046997.1,N
1598744315.5,286046996.5,Y
1598744335.4,286046999.9,P
1598744355.2,286046999.9,N
1598744375.0,286047002.6,N
1598744375.9,286047002.6,N
1598744395.8,286046999.7,N
1598744415.6,286047011.9,Y
1598744435.4,286047001.5,P
1598744455.3,286047002.0,P
1598744475.1,286047001.5,N
1598744495.9,286047002.7,Y
1598744515.7,286047000.5,P
1598744535.5,286047000.0,N
1598744555.4,286047000.7,N
1598744575.2,286046999.0,N
1598744595.1,286046999.1,N
1598744596.0,286046999.1,N
1598744615.8,286046998.1,N
1598744635.6,286047000.8,N
1598744655.5,286047001.2,N
1598744675.3,286046998.5,N
1598744695.1,286046999.1,N
1598744715.9,286046998.6,N
1598744735.7,286047000.4,N
1598744755.6,286046998.5,N
1598744775.4,286046998.5,N
1598744795.2,286046998.8,N
1598744815.1,286046999.4,N
1598744816.0,286046999.4,N
1598744835.8,286046999.6,N
1598744855.7,286047001.2,N
1598744875.5,286047000.9,N
1598744895.3,286046998.9,N
1598744915.2,286046999.3,N
1598744935.0,286046998.8,N
1598744935.9,286046998.8,N
1598744955.7,286047001.2,N
1598744975.6,286046998.8,N
1598744995.4,286047000.5,N
1598745015.3,286047000.4,N
1598745035.1,286047000.4,N
1598745036.0,286047000.4,N
1598745055.8,286047000.5,N
1598745075.7,286047002.1,N
1598745095.5,286047000.0,N
1598745115.3,286047000.9,N
1598745135.2,286047000.2,N
1598745155.0,286047002.1,N
1598745155.9,286047002.1,N
1598745175.8,286047002.6,N
1598745195.6,286047001.5,N
1598745215.4,286047002.5,N
1598745235.3,286047000.4,N
1598745255.1,286047000.5,N
1598745275.9,286047000.4,N
1598745295.7,286047001.2,N
1598745315.5,286047001.1,N
1598745335.4,286046998.6,N
1598745355.2,286046999.5,N
1598745375.1,286046996.6,Y
1598745376.0,286046996.6,P
1598745395.8,286046999.1,N
1598745415.6,286046996.8,N
1598745435.5,286046997.3,N
1598745455.3,286046996.7,N
1598745475.1,286046996.8,N
1598745495.9,286046999.5,N
1598745515.7,286046996.6,N
1598745535.6,286046999.3,N
1598745555.4,286046998.7,N
1598745575.2,286047001.2,N
1598745595.1,286046999.8,N
1598745596.0,286046999.8,N
